News and updates

Table of contents

New features and updates

21.02.2017New mode - TETRA
05.02.2017New form to report missing repeaters or updates
02.02.2017Imported 61 repeaters from UK
27.01.2017New mode - ATV
27.01.2017New bands: 13cm and 3cm

Geplante Erweitungen / Ideen / Visionen

Use geolocation to center map to current position
Use geolocation to show repeaters with distance and bearing
Search by callsign, frequency, QTH or locator
Locator - grid as layer
Show locator and position on mouse position
Add map to form for new repeaters
...

Anzahl Repeater nach Betriebsart

ModeAnzahl
ATV39
C4FM341
DMR943
DStar474
FM1587
Tetra22
Gesamt3406


5 neue Repeater innerhalb der letzten 7 Tage
25 neue Repeater innterhalb der letzten 30 Tage

Neue Repeater in der Datenbank

Die letzten 25 Repeater, die in die Datenbank aufgenommen wurden.
ZeitRepeaterModeQTHAktionEditor
2019-11-12 16:34:42ON0LB (145.775)FMVrerenNeuDL3XU
2019-11-12 12:52:30DB0TOM (145.6125)FMBrilonNeuDL3XU
2019-11-08 21:08:22DB0LWL (439.475)DMRGusbornNeuDL3XU
2019-11-08 12:19:44DB0GRZ (439.4)DMRGörlitz (Landeskrone)NeuDL3XU
2019-11-08 12:18:48DB0GRZ (439.4)C4FMGörlitz (Landeskrone)NeuDL3XU
2019-11-04 17:00:22DB0WTL (145.6375)FMLoewenstein - WasserturmNeuDL3XU
2019-11-03 13:06:08DB0ZD (438.8875)DStarMittagbergNeuDL3XU
2019-11-03 13:04:00DB0ZD (438.8875)DMRMittagbergNeuDL3XU
2019-11-03 13:00:54DB0ZD (438.8875)C4FMMittagbergNeuDL3XU
2019-11-02 21:11:27F5ZCQ (145.725)FMWissembourgNeuDL3XU
2019-11-01 21:15:07DB0FIS (438.5375)C4FMzwischen Furtwangen und GütenbachNeuDL3XU
2019-10-30 12:55:19DB0UI (439.225)FMMarburgNeuDL3XU
2019-10-27 10:24:14DB0LDS (439.5625)DMRWildauNeuDL3XU
2019-10-27 10:23:56DB0LDS (439.5625)FMWildauNeuDL3XU
2019-10-23 22:56:44DB0MMR 430.6125 438.2125 C4FM -7.6 JN68ID 12.66861 48.1393 Rache (438.2125)D-StarRacherting3, 84553 HalsbachNeuDL3XU
2019-10-23 22:55:10DB0MMR (438.2125)DMRRacherting3, 84553 HalsbachNeuDL3XU
2019-10-23 22:51:58DB0MMR (438.2125)C4FMRacherting3, 84553 HalsbachNeuDL3XU
2019-10-21 12:35:42DO0FWH (439.9875)FMStresowNeuDL3XU
2019-10-21 12:35:09DO0FWH (144.8)FMStresowNeuDL3XU
2019-10-18 22:02:25DB0MIR (438.7375)DMRInning am AmmerseeNeuDL3XU
2019-10-18 17:43:14YO8F (438.875)FMToaca - Ceahlau RumänienNeuDL3XU
2019-10-18 17:42:41Y08N (145.6)FMVârful Toaca RumänienNeuDL3XU
2019-10-18 12:45:26VK3RGL (439.5)DMRMount Anakie State of Victoria AustralienNeuDL3XU
2019-10-17 17:47:47DB0RVB (439.45)FMBad SachsaNeuDL3XU
2019-10-14 16:41:14DB0TF (145.675)C4FMUlm-BöfingenNeuDL3XU

Datenbank Updates

Die letzten 25 Updates der Repeater Datenbank
ZeitRepeaterModeQTHAktionEditor
2019-11-12 16:36:28ON0ODR (145.5875)C4FMBrakelUpdateDL3XU
2019-11-12 16:35:26ON0ODR (438.8125)DMRBrakelUpdateDL3XU
2019-11-12 13:00:14DB0LWL (439.475)DMRGusbornUpdateDL3XU
2019-11-12 12:59:11DB0KOB (1298.425)FMBerlin, RBB HochhausUpdateDL3XU
2019-11-12 12:55:27DB0KOB (1298.425)FMBerlin, RBB HochhausUpdateDL3XU
2019-11-11 16:26:38OE8XDK (439)FMGoldeckUpdateDL3XU
2019-11-11 16:25:58DB0BR (438.925)FMBerlin Tempelhof, Hessenring 47GelöschtDL3XU
2019-11-07 22:13:07DB0WTL (439.075)FMLoewenstein - WasserturmGelöschtDL3XU
2019-11-07 22:10:39DB0IRU (438.7)DMRPlau am SeeUpdateDL3XU
2019-11-07 17:41:01DM0HMB (438.45)DMRHamburg-MitteUpdateDL3XU
2019-11-07 12:33:06DB0FS (438.25)C4FMHH-LokstedtUpdateDL3XU
2019-11-06 20:39:38F1ZAE (145.675)FMPierrevillers - Relais de la LorraineUpdateDL3XU
2019-11-05 20:34:40DB0SS (438.65)FMHeilbronn WartbergGelöschtDK3ML
2019-11-05 20:33:35DB0OVG (438.9)FMGoldenstedtGelöschtDL3XU
2019-11-05 20:29:16DB0MSP (438.675)FMNeustrelitzGelöschtDL3XU
2019-11-05 20:22:29DB0WE (438.5)C4FMEssenGelöschtDK3ML
2019-11-05 20:20:13DF0MHR (145.6)FMMühlheim RuhrUpdateDL3XU
2019-11-04 17:01:19DB0YY (145.7125)FMLudwigsburg - OsterholzschuleUpdateDL3XU
2019-11-03 17:34:019A0VVS (145.65)FMVis island, mount Hum, 568 m asl.UpdateDL3XU
2019-11-03 17:32:199A0VVS (145.65)FMVis island, mount Hum, 568 m asl.UpdateDL3XU
2019-11-03 13:20:24DB0XN (438.95)FMBredstedtUpdateDL3XU
2019-11-03 13:18:50DB0XN (434.7875)TETRABredstedtGelöschtDK3ML
2019-11-03 13:17:00DB0XN (438.3875)DMRBredstedtGelöschtDK3ML
2019-11-03 13:07:27DB0ZD (439)FMMittagbergUpdateDL3XU
2019-11-03 13:07:13DB0ZD (438.8875)DStarMittagbergUpdateDL3XU